Dumas, Arkansas, United States (71639)
Lat: 33.89N, Lon: 91.49W
Wx Zone: ARZ065
Local Info
Past Weather Observations for Sunday, October 26, 2014

NOTE: This archive is for the closest National Weather Service station to Dumas. Information may differ from the station used for current weather conditions.

Click here for Long-term Archive

Time Weather Temperature Dewpoint Humidity Pressure Winds Precip Visibility
23:53
Clear
70°F / 21°C 57°F / 14°C 64% 29.95 in
(1014 mb)
S 8.1 mph
(S 13 kph)
- 10SM
22:53
Clear
70°F / 21°C 59°F / 15°C 69% 29.95 in
(1014 mb)
SSE 8.1 mph
(SSE 13 kph)
- 10SM
21:53
Clear
72°F / 22°C 63°F / 17°C 73% 29.95 in
(1014 mb)
SSE 6.9 mph
(SSE 11 kph)
- 10SM
20:53
Clear
72°F / 22°C 63°F / 17°C 73% 29.98 in
(1015 mb)
S 8.1 mph
(S 13 kph)
- 10SM
19:53
Clear
73°F / 23°C 63°F / 17°C 69% 29.98 in
(1015 mb)
SW 8.1 mph
(SW 13 kph)
- 10SM
18:53
Clear
75°F / 24°C 64°F / 18°C 69% 29.98 in
(1015 mb)
SSE 5.8 mph
(SSE 9 kph)
- 10SM
17:53
Clear
75°F / 24°C 64°F / 18°C 69% 29.95 in
(1014 mb)
SSE 4.6 mph
(SSE 7 kph)
- 10SM
16:53
Clear
79°F / 26°C 64°F / 18°C 61% 29.95 in
(1014 mb)
S 3.5 mph
(S 6 kph)
- 10SM
15:53
Clear
82°F / 28°C 63°F / 17°C 51% 29.95 in
(1014 mb)
SW 8.1 mph
(SW 13 kph)
- 10SM
14:53
Clear
84°F / 29°C 64°F / 18°C 51% 29.95 in
(1014 mb)
SW 9.2 mph
(SW 15 kph)
- 10SM
13:53
Clear
84°F / 29°C 64°F / 18°C 51% 29.98 in
(1015 mb)
Variable 5.8 mph
(Variable 9 kph)
- 10SM
12:53
Clear
84°F / 29°C 64°F / 18°C 51% 29.98 in
(1015 mb)
Variable 6.9 mph
(Variable 11 kph)
- 10SM
11:53
Clear
82°F / 28°C 64°F / 18°C 55% 30.01 in
(1016 mb)
SSW 5.8 mph
(SSW 9 kph)
- 10SM
10:53
Clear
81°F / 27°C 64°F / 18°C 58% 30.04 in
(1017 mb)
W 10.4 mph
(W 17 kph)
- 10SM
09:53
Clear
77°F / 25°C 64°F / 18°C 65% 30.06 in
(1018 mb)
SSW 6.9 mph
(SSW 11 kph)
- 10SM
08:53
Clear
72°F / 22°C 64°F / 18°C 78% 30.06 in
(1018 mb)
SSW 8.1 mph
(SSW 13 kph)
- 10SM
07:53
Clear
68°F / 20°C 63°F / 17°C 83% 30.06 in
(1018 mb)
W 6.9 mph
(W 11 kph)
- 8SM
06:53
Clear
Fog And Mist
64°F / 18°C 61°F / 16°C 88% 30.04 in
(1017 mb)
SSW 5.8 mph
(SSW 9 kph)
- 6SM
05:53
Clear
64°F / 18°C 61°F / 16°C 88% 30.04 in
(1017 mb)
W 3.5 mph
(W 6 kph)
0.00 in
(0.00 mm)
7SM
04:53
Clear
Light Rain
64°F / 18°C 61°F / 16°C 88% 30.04 in
(1017 mb)
SSW 4.6 mph
(SSW 7 kph)
0.00 in
(0.00 mm)
9SM
03:53
Clear
64°F / 18°C 61°F / 16°C 88% 30.01 in
(1016 mb)
W 4.6 mph
(W 7 kph)
- 9SM
02:53
Clear
66°F / 19°C 61°F / 16°C 83% 30.01 in
(1016 mb)
SSW 4.6 mph
(SSW 7 kph)
- 10SM
01:53
Clear
66°F / 19°C 63°F / 17°C 88% 30.04 in
(1017 mb)
SSW 3.5 mph
(SSW 6 kph)
- 10SM
00:53
Clear
66°F / 19°C 63°F / 17°C 88% 30.04 in
(1017 mb)
SSW 3.5 mph
(SSW 6 kph)
- 10SM
Time Weather Temperature Dewpoint Humidity Pressure Winds Precip Visibility


Weather for websites

WeatherForYou.com, LLC is not responsible for any damages or problems caused by this service. Current weather conditions are obtained from the closest station including government and personal stations which may have varying degrees of accuracy. Weather forecasts are derived from the NOAA NDFD. Like all things, this site belongs to Jesus Christ... He just trusts me to maintain it. If you have any questions or comments email webmaster@weatherforyou.com

Copyright © 2014, WeatherForYou.com LLC. All rights reserved.